DW2633 Weather Reports


time (UTC)temp
C
wind
direction
speed
KPH
gust
KPH
rain 1hr
cm
rain 24hr
cm
rain mn
cm
humidity
%
barometer
mb
20260510100047 8 215 1.6 0.0 0.00 0.00 0.00 96 1008.5
20260510095547 8 215 3.2 0.0 0.00 0.00 0.00 96 1008.5
20260510095048 8 215 1.6 0.0 0.00 0.00 0.00 96 1008.4
20260510094548 8 221 0.0 0.0 0.00 0.00 0.00 96 1008.4
20260510094045 8 221 0.0 0.0 0.00 0.00 0.00 96 1008.4
20260510093546 8 221 1.6 0.0 0.00 0.00 0.00 95 1008.3
20260510093045 8 221 1.6 0.0 0.00 0.00 0.00 95 1008.3
20260510092544 8 211 1.6 0.0 0.00 0.00 0.00 95 1008.2
20260510092044 8 208 1.6 0.0 0.00 0.00 0.00 95 1008.1
20260510091544 8 149 0.0 0.0 0.00 0.00 0.00 95 1008.0
20260510091044 8 149 0.0 0.0 0.00 0.00 0.00 95 1007.7
20260510090544 8 149 0.0 0.0 0.00 0.00 0.00 95 1007.8
20260510090048 8 149 1.6 0.0 0.00 0.00 0.00 95 1007.9
20260510085542 8 149 1.6 0.0 0.00 0.00 0.00 95 1008.0
20260510085042 8 143 3.2 0.0 0.00 0.00 0.00 95 1008.0
20260510084541 8 143 4.8 0.0 0.00 0.00 0.00 95 1007.9
20260510084041 9 142 4.8 0.0 0.00 0.00 0.00 95 1007.8
20260510083543 9 153 4.8 0.0 0.00 0.00 0.00 96 1008.0
20260510083040 9 156 6.4 0.0 0.00 0.00 0.00 96 1008.0
20260510082539 9 146 6.4 0.0 0.00 0.00 0.00 95 1008.0
20260510082039 9 132 8.0 0.0 0.00 0.00 0.00 96 1007.8
20260510081544 9 142 8.0 0.0 0.00 0.00 0.00 96 1007.8
20260510081039 9 160 6.4 0.0 0.00 0.00 0.00 96 1008.0
20260510080539 9 144 3.2 0.0 0.00 0.00 0.00 96 1008.1
20260510080038 9 159 3.2 0.0 0.00 0.00 0.00 96 1008.2
20260510075537 9 184 3.2 0.0 0.00 0.00 0.00 96 1008.0
20260510075037 9 154 3.2 0.0 0.00 0.00 0.00 96 1008.0
20260510074537 9 163 8.0 0.0 0.00 0.00 0.00 96 1007.9
20260510074037 9 155 8.0 0.0 0.00 0.00 0.00 96 1007.6
20260510073535 9 138 4.8 0.0 0.00 0.00 0.00 96 1007.6
20260510073036 9 150 4.8 0.0 0.00 0.00 0.00 96 1007.9
20260510072535 9 151 6.4 0.0 0.00 0.00 0.00 96 1007.8
20260510072035 9 138 6.4 0.0 0.00 0.00 0.00 96 1007.2
20260510071535 9 153 8.0 0.0 0.00 0.00 0.00 96 1007.6
20260510071034 9 152 9.7 0.0 0.00 0.00 0.00 95 1007.5
20260510070536 10 137 9.7 0.0 0.00 0.00 0.00 95 1007.3
20260510070036 10 144 9.7 0.0 0.00 0.00 0.00 95 1007.9
20260510065534 10 128 9.7 0.0 0.00 0.00 0.00 95 1007.9
20260510065031 10 136 8.0 0.0 0.00 0.00 0.00 95 1008.0
20260510064530 10 148 8.0 0.0 0.00 0.00 0.00 95 1008.4
20260510064029 10 146 6.4 0.0 0.00 0.00 0.00 95 1008.2
20260510063529 10 140 4.8 0.0 0.00 0.00 0.00 95 1008.4
20260510063029 10 207 4.8 0.0 0.00 0.00 0.00 95 1008.5
20260510062528 10 223 4.8 0.0 0.00 0.00 0.00 95 1008.6
20260510062030 10 223 3.2 0.0 0.00 0.00 0.00 96 1008.6
20260510061531 10 234 0.0 0.0 0.00 0.00 0.00 96 1008.8
20260510061030 10 234 1.6 0.0 0.00 0.00 0.00 96 1008.8
20260510060528 10 235 3.2 0.0 0.00 0.00 0.00 96 1008.9
20260510060028 10 222 8.0 0.0 0.00 0.00 0.00 96 1009.1
20260510055527 10 221 11.3 0.0 0.00 0.00 0.00 96 1009.0
20260510055026 10 251 11.3 0.0 0.00 0.00 0.00 95 1009.0
20260510054531 10 259 9.7 0.0 0.00 0.00 0.00 95 1008.8
20260510054024 10 251 8.0 0.0 0.00 0.00 0.00 95 1008.8
20260510053523 10 253 6.4 0.0 0.00 0.00 0.00 95 1008.8
20260510053022 10 246 1.6 0.0 0.00 0.00 0.00 95 1008.5
20260510052521 10 222 3.2 0.0 0.00 0.00 0.00 95 1008.5
20260510052021 10 222 4.8 0.0 0.00 0.00 0.00 95 1008.3
20260510051530 10 233 4.8 0.0 0.00 0.00 0.00 95 1008.3
20260510051020 10 232 4.8 0.0 0.00 0.00 0.00 95 1008.3
20260510050521 10 225 1.6 0.0 0.00 0.00 0.00 95 1008.2
20260510050020 10 209 1.6 0.0 0.00 0.00 0.00 95 1008.1
20260510045526 10 223 1.6 0.0 0.00 0.00 0.00 95 1008.1
20260510045020 10 202 1.6 0.0 0.00 0.00 0.00 95 1008.0
20260510044519 10 185 1.6 0.0 0.00 0.00 0.00 95 1008.0
20260510044019 10 178 1.6 0.0 0.00 0.00 0.00 95 1008.0
20260510043519 10 213 1.6 0.0 0.00 0.00 0.00 95 1008.0
20260510043023 10 203 1.6 0.0 0.00 0.00 0.00 95 1008.1
20260510042518 10 203 0.0 0.0 0.00 0.00 0.00 95 1008.0
20260510042017 10 222 0.0 0.0 0.00 0.00 0.00 95 1008.1
20260510041517 10 237 3.2 0.0 0.00 0.00 0.00 95 1008.2
20260510041017 10 237 4.8 0.0 0.00 0.00 0.00 95 1008.2
20260510040516 10 229 3.2 0.0 0.00 0.00 0.00 95 1008.3
20260510040014 10 238 3.2 0.0 0.00 0.00 0.00 95 1008.2
20260510035516 10 207 4.8 0.0 0.00 0.00 0.00 95 1008.1
20260510035014 10 146 8.0 0.0 0.00 0.00 0.00 96 1008.1
20260510034515 10 173 8.0 0.0 0.00 0.00 0.00 95 1008.0
20260510034017 10 127 8.0 0.0 0.00 0.00 0.00 96 1007.9
20260510033513 10 159 6.4 0.0 0.00 0.00 0.00 95 1008.0
20260510033014 10 149 4.8 0.0 0.00 0.00 0.00 95 1008.0
20260510032513 10 159 6.4 0.0 0.00 0.00 0.00 95 1008.0
20260510032013 10 148 6.4 0.0 0.00 0.00 0.00 95 1008.0
20260510031513 10 130 6.4 0.0 0.00 0.00 0.00 95 1008.0
20260510031014 10 189 8.0 0.0 0.00 0.00 0.00 95 1007.8
20260510030513 10 149 9.7 0.0 0.00 0.00 0.00 95 1007.8
20260510030015 10 136 9.7 0.0 0.00 0.00 0.00 95 1007.8
20260510025513 10 144 11.3 0.0 0.00 0.00 0.00 95 1007.8
20260510025013 10 128 12.9 0.0 0.00 0.00 0.00 95 1007.8
20260510024513 10 139 12.9 0.0 0.00 0.00 0.00 95 1007.9
20260510024013 10 129 11.3 0.0 0.00 0.00 0.00 95 1008.1
20260510023512 10 141 9.7 0.0 0.00 0.00 0.00 95 1008.1
20260510023013 10 147 9.7 0.0 0.00 0.00 0.00 96 1008.1
20260510022516 10 163 8.0 0.0 0.00 0.00 0.00 95 1008.1
20260510022012 10 148 8.0 0.0 0.00 0.00 0.00 95 1008.1
20260510021516 10 144 9.7 0.0 0.00 0.00 0.00 95 1008.1
20260510021011 10 148 9.7 0.0 0.00 0.00 0.00 96 1008.1
20260510020511 10 179 6.4 0.0 0.00 0.00 0.00 95 1007.9
20260510020012 10 146 8.0 0.0 0.00 0.00 0.00 96 1008.0
20260510015511 10 134 9.7 0.0 0.00 0.00 0.00 96 1007.8
20260510015011 10 159 9.7 0.0 0.00 0.00 0.00 96 1007.9
20260510014513 10 153 11.3 0.0 0.00 0.00 0.00 96 1008.0
20260510014010 10 160 11.3 0.0 0.00 0.00 0.00 96 1008.0
20260510013512 10 136 12.9 0.0 0.00 0.00 0.00 96 1008.1
20260510013010 10 131 12.9 0.0 0.00 0.00 0.00 96 1008.0
20260510012513 10 144 12.9 0.0 0.00 0.00 0.00 96 1007.8
20260510012009 10 131 12.9 0.0 0.00 0.00 0.00 96 1007.6
20260510011509 10 132 11.3 0.0 0.00 0.00 0.00 96 1007.8
20260510011009 10 132 9.7 0.0 0.00 0.00 0.00 96 1008.0
20260510010508 10 126 4.8 0.0 0.00 0.00 0.00 96 1008.1
20260510010008 10 157 1.6 0.0 0.00 0.00 0.00 95 1008.1
20260510005508 10 155 4.8 0.0 0.00 0.00 0.00 96 1008.0
20260510005008 10 155 6.4 0.0 0.00 0.00 0.00 95 1007.9
20260510004508 10 136 3.2 0.0 0.00 0.00 0.00 95 1007.8
20260510004011 10 316 1.6 0.0 0.00 0.00 0.00 95 1007.8
20260510003507 10 309 0.0 0.0 0.00 0.00 0.00 95 1007.9
20260510003007 10 309 0.0 0.0 0.00 0.00 0.00 95 1008.0
20260510002510 10 309 1.6 0.0 0.00 0.00 0.00 95 1007.9
20260510002006 10 310 6.4 0.0 0.00 0.00 0.00 95 1008.1
20260510001508 10 310 6.4 0.0 0.00 0.00 0.00 95 1007.9
20260510001006 10 304 4.8 0.0 0.00 0.00 0.00 95 1007.8
20260510000506 10 284 3.2 0.0 0.00 0.00 0.00 95 1007.8
20260510000011 10 284 3.2 0.0 0.00 0.00 0.00 95 1007.7
20260509235506 10 284 3.2 0.0 0.00 0.00 0.00 95 1007.6
20260509235006 10 284 3.2 0.0 0.00 0.00 0.00 95 1007.5
20260509234509 10 283 1.6 0.0 0.00 0.00 0.00 95 1007.4
20260509234009 10 262 0.0 0.0 0.00 0.00 0.00 94 1007.3
20260509233505 10 262 0.0 0.0 0.00 0.00 0.00 95 1007.2
20260509233005 10 262 1.6 0.0 0.00 0.00 0.00 95 1007.2
20260509232507 10 261 0.0 0.0 0.00 0.00 0.00 95 1007.2
20260509232005 10 261 1.6 0.0 0.00 0.00 0.00 95 1007.3
20260509231505 10 261 3.2 0.0 0.00 0.00 0.00 95 1007.3
20260509231004 10 261 3.2 0.0 0.00 0.00 0.00 95 1007.2
20260509230504 10 269 3.2 0.0 0.00 0.00 0.00 95 1007.2
20260509230005 10 274 3.2 0.0 0.00 0.00 0.00 95 1007.1
20260509225505 10 274 3.2 0.0 0.00 0.00 0.00 95 1007.1
20260509225004 10 298 1.6 0.0 0.00 0.00 0.00 95 1007.2
20260509224504 10 298 3.2 0.0 0.00 0.00 0.00 95 1007.1
20260509224003 10 298 4.8 0.0 0.00 0.00 0.00 95 1007.2
20260509223504 10 279 3.2 0.0 0.00 0.00 0.00 95 1007.2
20260509223004 10 222 1.6 0.0 0.00 0.00 0.00 96 1007.2
20260509222503 10 221 1.6 0.0 0.00 0.00 0.00 96 1007.2
20260509222005 10 150 3.2 0.0 0.00 0.00 0.00 96 1007.1
20260509221503 10 159 4.8 0.0 0.00 0.00 0.00 96 1007.2
20260509221002 10 133 8.0 0.0 0.00 0.00 0.00 96 1007.1
20260509220502 10 133 9.7 0.0 0.00 0.00 0.00 96 1007.1
20260509215602 9 144 6.4 0.0 0.00 0.00 0.00 95 1007.2
20260509215100 9 132 8.0 0.0 0.00 0.00 0.00 95 1007.2
20260509214559 9 153 9.7 0.0 0.00 0.00 0.00 95 1007.3
20260509214058 9 139 12.9 0.0 0.00 0.00 0.00 95 1007.5
20260509213557 9 140 12.9 0.0 0.00 0.00 0.00 95 1007.5
20260509213058 9 115 11.3 0.0 0.00 0.00 0.00 95 1007.5
20260509212556 9 140 9.7 0.0 0.00 0.00 0.00 95 1007.5
20260509212056 9 137 9.7 0.0 0.00 0.00 0.00 95 1007.5
20260509211600 9 123 9.7 0.0 0.00 0.00 0.00 95 1007.6
20260509211056 9 134 9.7 0.0 0.00 0.00 0.00 95 1007.6
20260509210556 9 148 9.7 0.0 0.00 0.00 0.00 95 1007.6
20260509210106 9 148 9.7 0.0 0.00 0.00 0.00 95 1007.7
20260509205554 9 148 9.7 0.0 0.00 0.00 0.00 95 1007.6
20260509205054 9 118 9.7 0.0 0.00 0.00 0.00 95 1007.7
20260509204553 9 136 11.3 0.0 0.00 0.00 0.00 95 1007.7
20260509204052 9 145 11.3 0.0 0.00 0.00 0.00 95 1007.8
20260509203554 9 151 9.7 0.0 0.00 0.00 0.00 95 1007.9
20260509203052 9 157 8.0 0.0 0.00 0.00 0.00 95 1007.9
20260509202553 9 143 6.4 0.0 0.00 0.00 0.00 95 1008.0
20260509202050 9 132 4.8 0.0 0.00 0.00 0.00 95 1008.0
20260509201549 9 204 4.8 0.0 0.00 0.00 0.00 95 1008.0
20260509201048 8 134 4.8 0.0 0.00 0.00 0.00 95 1008.2
20260509200547 8 205 3.2 0.0 0.00 0.00 0.00 95 1008.5
20260509200050 8 196 8.0 0.0 0.00 0.00 0.00 95 1008.5
20260509195550 8 171 9.7 0.0 0.00 0.00 0.00 95 1008.5
20260509195045 8 132 8.0 0.0 0.00 0.00 0.00 95 1008.6
20260509194544 8 153 6.4 0.0 0.00 0.00 0.00 95 1008.7
20260509194044 8 163 3.2 0.0 0.00 0.00 0.00 95 1008.7
20260509193544 8 155 6.4 0.0 0.00 0.00 0.00 95 1008.8
20260509193042 8 142 6.4 0.0 0.00 0.00 0.00 95 1008.8
20260509192542 8 130 6.4 0.0 0.00 0.00 0.00 95 1008.8
20260509192043 8 137 4.8 0.0 0.00 0.00 0.00 95 1008.8
20260509191543 8 159 4.8 0.0 0.00 0.00 0.00 95 1008.8
20260509191044 8 158 4.8 0.0 0.00 0.00 0.00 95 1008.7
20260509190545 8 158 6.4 0.0 0.00 0.00 0.00 95 1008.7
20260509190048 8 151 6.4 0.0 0.00 0.00 0.00 95 1008.7
20260509185541 8 113 8.0 0.0 0.00 0.00 0.00 95 1008.8
20260509185041 8 150 8.0 0.0 0.00 0.00 0.00 95 1008.8
20260509184540 8 130 4.8 0.0 0.00 0.00 0.00 95 1008.8
20260509184039 8 123 6.4 0.0 0.00 0.00 0.00 95 1008.9
20260509183539 8 144 8.0 0.0 0.00 0.00 0.00 95 1008.8
20260509183039 8 132 11.3 0.0 0.00 0.00 0.00 94 1008.8
20260509182538 8 126 12.9 0.0 0.00 0.00 0.00 95 1008.8
20260509182038 8 144 11.3 0.0 0.00 0.00 0.00 95 1008.8
20260509181537 8 123 9.7 0.0 0.00 0.00 0.00 95 1008.9
20260509181037 8 143 6.4 0.0 0.00 0.00 0.00 95 1008.9
20260509180537 8 142 4.8 0.0 0.00 0.00 0.00 94 1008.9
20260509180037 8 128 6.4 0.0 0.00 0.00 0.00 94 1009.0
20260509175536 8 126 8.0 0.0 0.00 0.00 0.00 94 1009.1
20260509175036 8 123 4.8 0.0 0.00 0.00 0.00 94 1009.0
20260509174538 8 160 4.8 0.0 0.00 0.00 0.00 94 1009.0
20260509174035 8 163 4.8 0.0 0.00 0.00 0.00 94 1009.2
20260509173534 8 134 3.2 0.0 0.00 0.00 0.00 94 1009.2
20260509173055 8 161 4.8 0.0 0.00 0.00 0.00 94 1009.3
20260509172533 8 143 6.4 0.0 0.00 0.00 0.00 94 1009.4
20260509172035 8 140 4.8 0.0 0.00 0.00 0.00 94 1009.3
20260509171539 8 49 3.2 0.0 0.00 0.00 0.00 95 1009.4
20260509171032 8 142 6.4 0.0 0.00 0.00 0.00 95 1009.4
20260509170531 7 118 8.0 0.0 0.00 0.00 0.00 95 1009.4
20260509170032 7 144 8.0 0.0 0.00 0.00 0.00 95 1009.6
20260509165529 7 134 4.8 0.0 0.00 0.00 0.00 95 1009.6
20260509165028 7 123 3.2 0.0 0.00 0.00 0.00 94 1009.8
20260509164528 7 136 3.2 0.0 0.00 0.00 0.00 94 1009.9
20260509164026 7 230 1.6 0.0 0.00 0.00 0.00 93 1009.9
20260509163526 7 220 3.2 0.0 0.00 0.00 0.00 94 1010.1
20260509163026 7 225 3.2 0.0 0.00 0.00 0.00 93 1010.2
20260509162526 7 223 1.6 0.0 0.00 0.00 0.00 94 1010.1
20260509162026 7 157 3.2 0.0 0.00 0.00 0.00 95 1010.0
20260509161525 7 144 9.7 0.0 0.00 0.00 0.00 95 1010.0
20260509161024 7 138 14.5 0.0 0.00 0.00 0.00 94 1010.1
20260509160524 7 150 17.7 0.0 0.00 0.00 0.00 95 1010.2
20260509160024 7 138 14.5 0.0 0.00 0.00 0.00 94 1010.2
20260509155521 7 137 12.9 0.0 0.00 0.00 0.00 94 1010.3
20260509155021 7 146 11.3 0.0 0.00 0.00 0.00 94 1010.6
20260509154520 7 136 6.4 0.0 0.00 0.00 0.00 94 1010.6
20260509154018 6 196 1.6 0.0 0.00 0.00 0.00 93 1010.9
20260509153518 6 178 1.6 0.0 0.00 0.00 0.00 93 1010.9
20260509153029 6 244 1.6 0.0 0.00 0.00 0.00 93 1010.9
20260509152518 6 159 1.6 0.0 0.00 0.00 0.00 94 1010.9
20260509152017 6 146 1.6 0.0 0.00 0.00 0.00 93 1010.8
20260509151516 6 198 0.0 0.0 0.00 0.00 0.00 93 1010.8
20260509151020 6 215 1.6 0.0 0.00 0.00 0.00 93 1011.0
20260509150516 6 215 1.6 0.0 0.00 0.00 0.00 93 1011.0
20260509150016 6 153 3.2 0.0 0.00 0.00 0.00 93 1011.0
20260509145516 6 136 3.2 0.0 0.00 0.00 0.00 93 1010.9
20260509145016 6 118 3.2 0.0 0.00 0.00 0.00 93 1011.0
20260509144516 6 230 3.2 0.0 0.00 0.00 0.00 92 1011.1
20260509144015 6 199 4.8 0.0 0.00 0.00 0.00 92 1010.9
20260509143522 6 137 4.8 0.0 0.00 0.00 0.00 93 1010.9
20260509143018 6 148 1.6 0.0 0.00 0.00 0.00 93 1010.9
20260509142514 6 157 1.6 0.0 0.00 0.00 0.00 92 1010.9
20260509142014 6 156 3.2 0.0 0.00 0.00 0.00 92 1011.0
20260509141514 6 161 1.6 0.0 0.00 0.00 0.00 92 1010.9
20260509141018 6 139 1.6 0.0 0.00 0.00 0.00 93 1010.9
20260509140515 6 186 1.6 0.0 0.00 0.00 0.00 93 1010.9
20260509140015 6 147 3.2 0.0 0.00 0.00 0.00 92 1010.9
20260509135513 6 154 3.2 0.0 0.00 0.00 0.00 92 1010.9
20260509135014 6 140 1.6 0.0 0.00 0.00 0.00 92 1010.9
20260509134512 6 148 1.6 0.0 0.00 0.00 0.00 92 1010.9
20260509134011 6 215 0.0 0.0 0.00 0.00 0.00 91 1010.9
20260509133510 6 215 0.0 0.0 0.00 0.00 0.00 91 1011.0
20260509133010 6 215 0.0 0.0 0.00 0.00 0.00 90 1011.2
20260509132510 6 215 0.0 0.0 0.00 0.00 0.00 90 1011.2
20260509132010 6 219 0.0 0.0 0.00 0.00 0.00 90 1011.3
20260509131510 6 219 0.0 0.0 0.00 0.00 0.00 90 1011.3
20260509131010 6 219 0.0 0.0 0.00 0.00 0.00 89 1011.3
20260509130512 6 192 0.0 0.0 0.00 0.00 0.00 89 1011.2
20260509130030 6 140 0.0 0.0 0.00 0.00 0.00 89 1011.2
20260509125510 6 219 0.0 0.0 0.00 0.00 0.00 88 1011.2
20260509125009 6 209 0.0 0.0 0.00 0.00 0.00 87 1011.1
20260509124525 6 217 0.0 0.0 0.00 0.00 0.00 88 1011.2
20260509124008 6 217 3.2 0.0 0.00 0.00 0.00 87 1011.1
20260509123508 6 133 3.2 0.0 0.00 0.00 0.00 87 1011.1
20260509123010 6 108 1.6 0.0 0.00 0.00 0.00 87 1011.2
20260509122505 6 187 1.6 0.0 0.00 0.00 0.00 87 1011.1
20260509122006 6 134 3.2 0.0 0.00 0.00 0.00 86 1011.1
20260509121504 6 142 1.6 0.0 0.00 0.00 0.00 86 1011.3
20260509121004 5 147 1.6 0.0 0.00 0.00 0.00 85 1011.3
20260509120503 5 119 3.2 0.0 0.00 0.00 0.00 85 1011.3
20260509120007 5 54 3.2 0.0 0.00 0.00 0.00 85 1011.3
20260509115501 5 57 3.2 0.0 0.00 0.00 0.00 85 1011.7
20260509115005 5 53 3.2 0.0 0.00 0.00 0.00 86 1011.7
20260509114501 5 101 3.2 0.0 0.00 0.00 0.00 86 1011.7
20260509114100 5 101 3.2 0.0 0.00 0.00 0.00 85 1011.8
20260509113600 5 93 3.2 0.0 0.00 0.00 0.00 86 1011.8
20260509113134 5 92 3.2 0.0 0.00 0.00 0.00 86 1011.7
20260509112600 5 86 4.8 0.0 0.00 0.00 0.00 87 1011.7
20260509112058 5 98 8.0 0.0 0.00 0.00 0.00 88 1011.8
20260509111557 4 53 8.0 0.0 0.00 0.00 0.00 90 1011.8
20260509111056 3 26 6.4 0.0 0.00 0.00 0.00 93 1011.9
20260509110554 2 5 1.6 0.0 0.00 0.00 0.00 94 1011.9
20260509110059 2 134 1.6 0.0 0.00 0.00 0.00 93 1011.7
20260509105551 2 138 3.2 0.0 0.00 0.00 0.00 92 1011.6
20260509105052 2 138 1.6 0.0 0.00 0.00 0.00 92 1011.3
20260509104551 1 137 0.0 0.0 0.00 0.00 0.00 92 1011.3
20260509104050 1 137 0.0 0.0 0.00 0.00 0.00 92 1011.4
20260509103549 1 137 3.2 0.0 0.00 0.00 0.00 92 1011.3
20260509103050 1 138 6.4 0.0 0.00 0.00 0.00 92 1011.2
20260509102548 1 135 6.4 0.0 0.00 0.00 0.00 92 1011.1
20260509102047 1 126 6.4 0.0 0.00 0.00 0.00 92 1011.2
20260509101558 1 139 6.4 0.0 0.00 0.00 0.00 92 1011.4
20260509101047 1 136 6.4 0.0 0.00 0.00 0.00 92 1011.5
20260509100546 1 133 4.8 0.0 0.00 0.00 0.00 92 1011.5